sat.trackr.live / text

‹ back to catalog

STARLINK-32165

NORAD 60599 · 2024-150S

PAYLOAD ACTIVE UNKNOWN

§ Identity

Operator
Country
US
Launch date
2024-08-20
Launch site
AFETR
Launch vehicle
Mass (kg)
RCS (m²)

Purposes: comms

External: N2YO · Heavens-Above · Gunter

§ Orbital elements

Epoch: 2026-05-24T18:08:17.050560Z

Period
94.11 min
Inclination
53.1612°
Eccentricity
0.0001124
Mean motion
15.30193748 rev/d
Perigee alt
474.5 km
Apogee alt
476.0 km
Semi-major
6,853.4 km
B*
3.3527e-5
RAAN
313.9749°
Arg perigee
82.9165°
Mean anomaly
277.1963°
Rev number
9,968

§ Raw data

STARLINK-321651 60599U 24150S   26144.75575290  .00000634  00000+0  33527-4 0  99942 60599  53.1612 313.9749 0001124  82.9165 277.1963 15.30193748 99682

JSON: /api/v1/satellites/60599 · /tle

For live sub-satellite position, see the globe view (requires WebGL).

§ Visibility from observer

Set your observer location to see the next 7 days of passes ≥ 10°. The values pass through the URL so the page stays shareable.

No JS? Fill the form by hand. The geolocation button needs JavaScript.